date,City,No. Stations,Air Quality,Index Value,Prominent Pollutant
2016-09-25,Durgapur,1.0,Severe,451,O3
2016-09-27,Durgapur,1.0,Severe,451,O3
2016-09-30,Durgapur,1.0,Severe,451,O3
2016-10-04,Durgapur,1.0,Good,43,CO
2016-10-05,Durgapur,1.0,Good,50,CO
2016-10-07,Durgapur,1.0,Good,41,CO
2016-10-08,Durgapur,1.0,Good,28,NO2
2016-10-09,Durgapur,1.0,Good,45,CO
2016-10-10,Durgapur,1.0,Good,32,CO
2016-10-11,Durgapur,1.0,Good,50,NO2
2016-10-12,Durgapur,1.0,Good,45,CO
2016-10-13,Durgapur,1.0,Satisfactory,67,PM10
2016-10-15,Durgapur,1.0,Good,33,PM10
2016-10-16,Durgapur,1.0,Satisfactory,57,PM10
2016-10-17,Durgapur,1.0,Good,48,NO2
2016-10-18,Durgapur,1.0,Satisfactory,74,CO
2016-10-19,Durgapur,1.0,Good,34,PM10
2016-10-20,Durgapur,1.0,Good,42,PM10
2016-10-21,Durgapur,1.0,Good,44,PM10
2016-10-22,Durgapur,1.0,Good,50,PM10
2016-10-23,Durgapur,1.0,Satisfactory,51,PM10
2016-10-24,Durgapur,1.0,Satisfactory,61,CO
2016-10-25,Durgapur,1.0,Satisfactory,57,PM10
2016-10-26,Durgapur,1.0,Good,50,PM10
2016-10-27,Durgapur,1.0,Good,29,PM10
2016-10-28,Durgapur,1.0,Good,47,CO
2016-10-29,Durgapur,1.0,Satisfactory,51,NO2
2016-10-30,Durgapur,1.0,Satisfactory,53,NO2
2016-10-31,Durgapur,1.0,Good,34,PM10
2016-11-01,Durgapur,1.0,Good,38,CO
2016-11-02,Durgapur,1.0,Good,39,CO
2016-11-03,Durgapur,1.0,Good,34,CO
2016-11-04,Durgapur,1.0,Good,41,NO2
2016-11-05,Durgapur,1.0,Good,50,NO2
2016-11-06,Durgapur,1.0,Satisfactory,53,PM10
2016-11-15,Durgapur,1.0,Satisfactory,74,PM10
2016-11-16,Durgapur,1.0,Severe,451,O3
2016-11-18,Durgapur,1.0,Satisfactory,86,PM10
2016-11-19,Durgapur,1.0,Satisfactory,78,PM10
2016-11-20,Durgapur,1.0,Satisfactory,90,PM10
2016-11-23,Durgapur,1.0,Satisfactory,80,PM10
2016-11-24,Durgapur,1.0,Moderate,112,PM10
2016-11-25,Durgapur,1.0,Moderate,128,PM10
2016-11-26,Durgapur,1.0,Moderate,163,PM10
2016-11-28,Durgapur,1.0,Good,46,CO
2016-11-29,Durgapur,1.0,Very Poor,352,PM10
2016-11-30,Durgapur,1.0,Moderate,179,PM10
2016-12-01,Durgapur,1.0,Moderate,133,PM10
2016-12-02,Durgapur,1.0,Moderate,178,PM10
2016-12-03,Durgapur,1.0,Moderate,199,PM10
2016-12-04,Durgapur,1.0,Poor,231,PM10
2016-12-05,Durgapur,1.0,Poor,226,PM10
2016-12-06,Durgapur,1.0,Poor,244,PM10
2016-12-07,Durgapur,1.0,Severe,451,O3
2016-12-08,Durgapur,1.0,Poor,206,PM10
2016-12-09,Durgapur,1.0,Moderate,190,PM10
2016-12-10,Durgapur,1.0,Poor,226,PM10
2016-12-11,Durgapur,1.0,Poor,207,PM10
2016-12-12,Durgapur,1.0,Poor,241,PM10
2016-12-13,Durgapur,1.0,Poor,236,PM10
2016-12-14,Durgapur,1.0,Poor,242,PM10
2016-12-15,Durgapur,1.0,Poor,279,PM10
2016-12-16,Durgapur,1.0,Poor,219,PM10
2016-12-17,Durgapur,1.0,Poor,263,PM10
2016-12-20,Durgapur,1.0,Very Poor,316,PM10
2016-12-23,Durgapur,1.0,Very Poor,351,PM10
2016-12-27,Durgapur,1.0,Poor,290,PM10
2017-01-03,Durgapur,1.0,Poor,267,PM10
2017-01-20,Durgapur,1.0,Poor,239,PM10
2017-01-21,Durgapur,1.0,Moderate,187,PM10
2017-01-24,Durgapur,1.0,Poor,262,PM10
2017-02-02,Durgapur,1.0,Poor,245,PM10
2017-02-03,Durgapur,1.0,Poor,231,PM10
2017-02-04,Durgapur,1.0,Poor,235,PM10
2017-02-05,Durgapur,1.0,Poor,250,PM10
2017-02-06,Durgapur,1.0,Poor,298,PM10
2017-02-07,Durgapur,1.0,Poor,296,PM10
2017-02-08,Durgapur,1.0,Poor,222,PM10
2017-02-09,Durgapur,1.0,Moderate,190,PM10
2017-02-10,Durgapur,1.0,Poor,242,PM10
2017-02-11,Durgapur,1.0,Poor,208,PM10
2017-02-12,Durgapur,1.0,Moderate,158,PM10
2017-02-13,Durgapur,1.0,Very Poor,321,PM10
2017-02-14,Durgapur,1.0,Very Poor,306,PM10
2017-02-15,Durgapur,1.0,Poor,216,PM10
2017-02-16,Durgapur,1.0,Poor,207,PM10
2017-02-17,Durgapur,1.0,Poor,206,PM10
2017-02-18,Durgapur,1.0,Poor,242,PM10
2017-02-19,Durgapur,1.0,Poor,231,PM10
2017-02-20,Durgapur,1.0,Poor,297,PM10
2017-02-21,Durgapur,1.0,Poor,275,PM10
2017-02-24,Durgapur,1.0,Poor,205,PM10
2017-02-25,Durgapur,1.0,Moderate,196,PM10
2017-02-26,Durgapur,1.0,Poor,271,PM10
2017-02-28,Durgapur,1.0,Poor,234,PM10
2017-03-01,Durgapur,1.0,Very Poor,322,PM10
2017-03-03,Durgapur,1.0,Poor,233,PM10
2017-03-04,Durgapur,1.0,Moderate,181,PM10
2017-03-05,Durgapur,1.0,Moderate,186,PM10
2017-03-06,Durgapur,1.0,Moderate,189,PM10
2017-03-07,Durgapur,1.0,Moderate,177,PM10
2017-03-08,Durgapur,1.0,Poor,227,PM10
2017-03-09,Durgapur,1.0,Poor,211,PM10
2017-03-10,Durgapur,1.0,Moderate,142,PM10
2017-03-11,Durgapur,1.0,Moderate,163,PM10
2017-03-12,Durgapur,1.0,Moderate,128,PM10
2017-03-13,Durgapur,1.0,Satisfactory,55,O3
2017-03-21,Durgapur,1.0,Moderate,127,PM10
2017-03-22,Durgapur,1.0,Moderate,158,PM10
2017-03-23,Durgapur,1.0,Moderate,152,PM10
2017-03-30,Durgapur,1.0,Moderate,136,PM10
2017-03-31,Durgapur,1.0,Moderate,138,PM10
2017-04-01,Durgapur,1.0,Moderate,125,PM10
2017-04-05,Durgapur,1.0,Satisfactory,94,PM10
2017-04-06,Durgapur,1.0,Satisfactory,100,PM10
2017-04-07,Durgapur,1.0,Moderate,112,PM10
2017-04-12,Durgapur,1.0,Moderate,147,PM10
2017-04-13,Durgapur,1.0,Moderate,124,PM10
2017-04-14,Durgapur,1.0,Moderate,116,PM10
2017-04-15,Durgapur,1.0,Moderate,110,PM10
2017-04-16,Durgapur,1.0,Moderate,103,PM10
2017-04-17,Durgapur,1.0,Satisfactory,88,CO
2017-04-18,Durgapur,1.0,Satisfactory,98,PM10
2017-04-19,Durgapur,1.0,Moderate,114,PM10
2017-04-20,Durgapur,1.0,Moderate,115,PM10
2017-04-21,Durgapur,1.0,Moderate,101,PM10
2017-04-22,Durgapur,1.0,Moderate,113,PM10
2017-04-23,Durgapur,1.0,Satisfactory,68,PM10
2017-04-28,Durgapur,1.0,Moderate,168,PM10
2017-04-29,Durgapur,1.0,Moderate,148,PM10
2017-05-04,Durgapur,1.0,Moderate,147,PM10
2017-05-05,Durgapur,1.0,Moderate,133,PM10
2017-05-06,Durgapur,1.0,Moderate,128,PM10
2017-05-07,Durgapur,1.0,Moderate,133,PM10
2017-05-08,Durgapur,1.0,Moderate,115,PM10
2017-05-09,Durgapur,1.0,Satisfactory,89,PM10
2017-05-10,Durgapur,1.0,Satisfactory,84,PM10
2017-05-11,Durgapur,1.0,Moderate,112,PM10
2017-05-12,Durgapur,1.0,Moderate,135,PM10
2017-05-13,Durgapur,1.0,Moderate,121,PM10
2017-05-14,Durgapur,1.0,Moderate,153,PM10
2017-05-15,Durgapur,1.0,Moderate,114,PM10
2017-05-16,Durgapur,1.0,Moderate,114,PM10
2017-05-17,Durgapur,1.0,Satisfactory,82,PM10
2017-05-18,Durgapur,1.0,Moderate,144,PM10
2017-05-19,Durgapur,1.0,Moderate,173,PM10
2017-05-20,Durgapur,1.0,Moderate,156,PM10
2017-05-21,Durgapur,1.0,Moderate,135,PM10
2017-05-22,Durgapur,1.0,Moderate,147,PM10
2017-05-23,Durgapur,1.0,Moderate,165,PM10
2017-05-24,Durgapur,1.0,Moderate,147,PM10
2017-05-26,Durgapur,1.0,Moderate,105,PM10
2017-05-27,Durgapur,1.0,Satisfactory,71,PM10
2017-05-28,Durgapur,1.0,Satisfactory,99,PM10
2017-05-29,Durgapur,1.0,Satisfactory,69,PM10
2017-06-01,Durgapur,1.0,Moderate,107,PM10
2017-06-02,Durgapur,1.0,Satisfactory,87,PM10
2017-06-06,Durgapur,1.0,Moderate,115,PM10
2017-06-07,Durgapur,1.0,Moderate,133,PM10
2017-06-08,Durgapur,1.0,Moderate,127,PM10
2017-06-09,Durgapur,1.0,Moderate,109,PM10
2017-06-10,Durgapur,1.0,Moderate,112,PM10
2017-06-13,Durgapur,1.0,Moderate,109,PM10
2017-06-14,Durgapur,1.0,Moderate,112,PM10
2017-06-15,Durgapur,1.0,Moderate,102,PM10
2017-06-16,Durgapur,1.0,Satisfactory,92,PM10
2017-06-17,Durgapur,1.0,Moderate,124,PM10
2017-06-21,Durgapur,1.0,Moderate,104,PM10
2017-06-22,Durgapur,1.0,Moderate,123,PM10
2017-06-24,Durgapur,1.0,Satisfactory,100,PM10
2017-06-25,Durgapur,1.0,Good,50,PM10
2017-06-26,Durgapur,1.0,Satisfactory,53,PM10
2017-06-27,Durgapur,1.0,Good,47,PM10
2017-06-28,Durgapur,1.0,Good,46,NO2
2017-06-29,Durgapur,1.0,Good,50,PM10
2017-07-07,Durgapur,1.0,Moderate,126,PM10
2017-07-08,Durgapur,1.0,Moderate,156,PM10
2017-07-09,Durgapur,1.0,Satisfactory,96,PM10
2017-07-10,Durgapur,1.0,Moderate,103,PM10
2017-07-11,Durgapur,1.0,Moderate,113,PM10
2017-07-12,Durgapur,1.0,Satisfactory,69,PM10
2017-07-13,Durgapur,1.0,Satisfactory,57,NO2
2017-07-14,Durgapur,1.0,Satisfactory,56,PM10
2017-07-15,Durgapur,1.0,Satisfactory,79,PM10
2017-07-16,Durgapur,1.0,Satisfactory,67,PM10
2017-07-17,Durgapur,1.0,Good,46,NO2
2017-07-18,Durgapur,1.0,Good,43,NO2
2017-07-19,Durgapur,1.0,Good,43,NO2
2017-07-20,Durgapur,1.0,Good,45,NO2
2017-07-21,Durgapur,1.0,Satisfactory,93,PM10
2017-07-22,Durgapur,1.0,Satisfactory,77,O3
2017-07-23,Durgapur,1.0,Satisfactory,76,O3
2017-07-24,Durgapur,1.0,Moderate,183,O3
2017-07-27,Durgapur,1.0,Satisfactory,83,PM10
2017-08-01,Durgapur,1.0,Moderate,123,PM10
2017-08-02,Durgapur,1.0,Moderate,140,PM10
2017-08-03,Durgapur,1.0,Moderate,110,PM10
2017-08-04,Durgapur,1.0,Satisfactory,89,PM10
2017-08-05,Durgapur,1.0,Satisfactory,52,PM10
2017-08-06,Durgapur,1.0,Satisfactory,72,PM10
2017-08-07,Durgapur,1.0,Moderate,126,PM10
2017-08-08,Durgapur,1.0,Moderate,101,PM10
2017-08-09,Durgapur,1.0,Satisfactory,88,PM10
2017-08-10,Durgapur,1.0,Satisfactory,98,PM10
2017-08-11,Durgapur,1.0,Moderate,124,PM10
2017-08-12,Durgapur,1.0,Moderate,176,PM10
2017-08-13,Durgapur,1.0,Moderate,133,PM10
2017-08-14,Durgapur,1.0,Moderate,142,PM10
2017-08-15,Durgapur,1.0,Satisfactory,94,PM10
2017-08-16,Durgapur,1.0,Moderate,102,PM10
2017-08-17,Durgapur,1.0,Moderate,112,PM10
2017-08-18,Durgapur,1.0,Satisfactory,67,PM10
2017-08-19,Durgapur,1.0,Good,36,NO2
2017-08-20,Durgapur,1.0,Good,38,PM10
2017-08-21,Durgapur,1.0,Satisfactory,95,PM10
2017-08-22,Durgapur,1.0,Moderate,130,PM10
2017-08-28,Durgapur,1.0,Good,31,NO2
2017-08-29,Durgapur,1.0,Good,41,PM10
2017-08-30,Durgapur,1.0,Satisfactory,75,PM10
2017-08-31,Durgapur,1.0,Satisfactory,90,PM10
2017-09-01,Durgapur,1.0,Moderate,148,PM10
2017-09-02,Durgapur,1.0,Moderate,101,PM10
2017-09-03,Durgapur,1.0,Satisfactory,93,PM10
2017-09-04,Durgapur,1.0,Moderate,134,PM10
2017-09-06,Durgapur,1.0,Moderate,161,PM10
2017-09-07,Durgapur,1.0,Moderate,172,PM10
2017-09-08,Durgapur,1.0,Moderate,145,PM10
2017-09-09,Durgapur,1.0,Moderate,151,PM10
2017-09-13,Durgapur,1.0,Moderate,141,PM10
2017-09-14,Durgapur,1.0,Moderate,130,PM10
2017-09-15,Durgapur,1.0,Moderate,172,PM10
2017-09-16,Durgapur,1.0,Moderate,170,PM10
2017-09-17,Durgapur,1.0,Moderate,143,PM10
2017-09-18,Durgapur,1.0,Good,40,PM10
2017-09-19,Durgapur,1.0,Good,29,PM10
2017-09-20,Durgapur,1.0,Good,45,PM10
2017-09-22,Durgapur,1.0,Satisfactory,84,PM10
2017-09-26,Durgapur,1.0,Moderate,146,PM10
2017-09-27,Durgapur,1.0,Moderate,136,PM10
2017-09-28,Durgapur,1.0,Moderate,169,PM10
2017-09-29,Durgapur,1.0,Moderate,124,PM10
2017-09-30,Durgapur,1.0,Satisfactory,99,PM10
2017-10-03,Durgapur,1.0,Satisfactory,55,PM10
2017-10-04,Durgapur,1.0,Satisfactory,59,PM10
2017-10-05,Durgapur,1.0,Satisfactory,82,PM10
2017-10-06,Durgapur,1.0,Satisfactory,99,PM10
2017-10-07,Durgapur,1.0,Moderate,112,PM10
2017-10-08,Durgapur,1.0,Satisfactory,86,PM10
2017-10-09,Durgapur,1.0,Good,34,PM10
2017-10-10,Durgapur,1.0,Satisfactory,54,SO2
2017-10-11,Durgapur,1.0,Satisfactory,66,PM10
2017-10-12,Durgapur,1.0,Satisfactory,81,PM10
2017-10-13,Durgapur,1.0,Good,41,NO2
2017-10-16,Durgapur,1.0,Satisfactory,62,PM10
2017-10-17,Durgapur,1.0,Good,41,O3
2017-10-18,Durgapur,1.0,Good,39,PM10
2017-10-19,Durgapur,1.0,Good,35,NO2
2017-10-20,Durgapur,1.0,Good,30,NO2
2017-10-21,Durgapur,1.0,Good,32,NO2
2017-10-22,Durgapur,1.0,Good,37,NO2
2017-10-23,Durgapur,1.0,Good,35,NO2
2017-10-24,Durgapur,1.0,Good,46,PM10
2017-10-25,Durgapur,1.0,Good,40,CO
2017-10-26,Durgapur,1.0,Good,36,NO2
2017-10-27,Durgapur,1.0,Good,33,PM10
2017-10-28,Durgapur,1.0,Good,46,PM10
2017-10-29,Durgapur,1.0,Good,35,NO2
2017-10-30,Durgapur,1.0,Good,33,NO2
2017-11-02,Durgapur,1.0,Moderate,103,PM10
2017-11-03,Durgapur,1.0,Satisfactory,89,PM10
2017-11-04,Durgapur,1.0,Moderate,105,PM10
2017-11-05,Durgapur,1.0,Satisfactory,81,PM10
2017-11-07,Durgapur,1.0,Moderate,102,PM10
2017-11-08,Durgapur,1.0,Moderate,134,PM10
2017-11-09,Durgapur,1.0,Moderate,148,PM10
2017-11-10,Durgapur,1.0,Moderate,140,PM10
2017-11-11,Durgapur,1.0,Moderate,134,PM10
2017-11-12,Durgapur,1.0,Moderate,147,PM10
2017-11-13,Durgapur,1.0,Moderate,123,PM10
2017-11-14,Durgapur,1.0,Moderate,113,PM10
2017-11-15,Durgapur,1.0,Moderate,104,PM10
2017-11-16,Durgapur,1.0,Satisfactory,65,PM10
2017-11-17,Durgapur,1.0,Satisfactory,52,PM10
2017-11-18,Durgapur,1.0,Satisfactory,62,PM10
2017-11-19,Durgapur,1.0,Moderate,131,PM10
2017-11-20,Durgapur,1.0,Moderate,158,PM10
2017-11-21,Durgapur,1.0,Moderate,172,PM10
2017-11-22,Durgapur,1.0,Moderate,146,PM10
2017-11-23,Durgapur,1.0,Moderate,185,PM10
2017-11-24,Durgapur,1.0,Poor,202,PM10
2017-11-25,Durgapur,1.0,Poor,207,PM10
2017-11-28,Durgapur,1.0,Poor,262,PM10
2017-11-29,Durgapur,1.0,Moderate,200,PM10
2017-11-30,Durgapur,1.0,Poor,212,PM10
2017-12-01,Durgapur,1.0,Poor,236,PM10
2017-12-02,Durgapur,1.0,Poor,203,PM10
2017-12-03,Durgapur,1.0,Poor,226,PM10
2017-12-04,Durgapur,1.0,Poor,205,PM10
2017-12-05,Durgapur,1.0,Poor,220,PM10
2017-12-06,Durgapur,1.0,Poor,229,PM10
2017-12-07,Durgapur,1.0,Poor,216,PM10
2017-12-08,Durgapur,1.0,Poor,234,PM10
2017-12-09,Durgapur,1.0,Moderate,150,PM10
2017-12-10,Durgapur,1.0,Satisfactory,65,PM10
2017-12-11,Durgapur,1.0,Satisfactory,100,PM10
2017-12-12,Durgapur,1.0,Moderate,182,PM10
2017-12-13,Durgapur,1.0,Poor,203,PM10
2017-12-14,Durgapur,1.0,Moderate,200,PM10
2017-12-15,Durgapur,1.0,Moderate,198,PM10
2017-12-17,Durgapur,1.0,Moderate,137,PM10
2017-12-19,Durgapur,1.0,Poor,232,PM10
2017-12-20,Durgapur,1.0,Poor,215,PM10
2017-12-21,Durgapur,1.0,Moderate,184,PM10
2017-12-22,Durgapur,1.0,Poor,216,PM10
2017-12-23,Durgapur,1.0,Poor,287,PM10
2017-12-27,Durgapur,1.0,Moderate,188,PM10
2017-12-28,Durgapur,1.0,Moderate,183,PM10
2017-12-29,Durgapur,1.0,Poor,230,PM10
2017-12-30,Durgapur,1.0,Poor,212,PM10
2017-12-31,Durgapur,1.0,Moderate,191,PM10
2018-01-01,Durgapur,1.0,Moderate,181,PM10
2018-01-02,Durgapur,1.0,Moderate,147,PM10
2018-01-03,Durgapur,1.0,Poor,227,PM10
2018-01-04,Durgapur,1.0,Moderate,185,PM10
2018-01-05,Durgapur,1.0,Poor,237,PM10
2018-01-06,Durgapur,1.0,Poor,205,PM10
2018-01-09,Durgapur,1.0,Poor,244,PM10
2018-01-10,Durgapur,1.0,Poor,227,PM10
2018-01-11,Durgapur,1.0,Poor,258,PM10
2018-01-12,Durgapur,1.0,Poor,274,PM10
2018-01-13,Durgapur,1.0,Poor,269,PM10
2018-01-17,Durgapur,1.0,Poor,238,PM10
2018-01-18,Durgapur,1.0,Poor,287,PM10
2018-01-19,Durgapur,1.0,Poor,249,PM10
2018-01-21,Durgapur,1.0,Poor,268,PM10
2018-01-24,Durgapur,1.0,Poor,227,PM10
2018-01-25,Durgapur,1.0,Moderate,182,PM10
2018-01-26,Durgapur,1.0,Poor,202,PM10
2018-01-27,Durgapur,1.0,Poor,211,PM10
2018-01-28,Durgapur,1.0,Poor,252,PM10
2018-01-29,Durgapur,1.0,Poor,216,PM10
2018-01-30,Durgapur,1.0,Poor,200,PM10
2018-01-31,Durgapur,1.0,Poor,224,PM10
2018-02-01,Durgapur,1.0,Poor,260,PM10
2018-02-02,Durgapur,1.0,Poor,268,PM10
2018-02-03,Durgapur,1.0,Poor,272,PM10
2018-02-04,Durgapur,1.0,Very Poor,309,PM10
2018-02-05,Durgapur,1.0,Poor,237,PM10
2018-02-06,Durgapur,1.0,Poor,216,PM10
2018-02-07,Durgapur,1.0,Poor,229,PM10
2018-02-08,Durgapur,1.0,Poor,210,PM10
2018-02-09,Durgapur,1.0,Poor,215,PM10
2018-02-10,Durgapur,1.0,Poor,205,PM10
2018-02-11,Durgapur,1.0,Moderate,143,PM10
2018-02-12,Durgapur,1.0,Moderate,189,PM10
2018-02-13,Durgapur,1.0,Moderate,134,PM10
2018-02-14,Durgapur,1.0,Moderate,179,PM10
2018-02-15,Durgapur,1.0,Moderate,144,PM10
2018-02-16,Durgapur,1.0,Moderate,173,PM10
2018-02-17,Durgapur,1.0,Poor,206,PM10
2018-02-18,Durgapur,1.0,Poor,256,PM10
2018-02-19,Durgapur,1.0,Poor,286,PM10
2018-02-20,Durgapur,1.0,Poor,215,PM10
2018-02-21,Durgapur,1.0,Moderate,199,PM10
2018-02-22,Durgapur,1.0,Poor,234,PM10
2018-02-24,Durgapur,1.0,Poor,247,PM10
2018-02-25,Durgapur,1.0,Poor,258,PM10
2018-02-26,Durgapur,1.0,Poor,258,PM10
2018-02-27,Durgapur,1.0,Moderate,183,PM10
2018-03-01,Durgapur,1.0,Poor,221,PM10
2018-03-02,Durgapur,1.0,Poor,216,PM10
2018-03-03,Durgapur,1.0,Poor,224,PM10
2018-03-04,Durgapur,1.0,Poor,290,PM10
2018-03-05,Durgapur,1.0,Poor,291,PM10
2018-03-06,Durgapur,1.0,Moderate,175,PM10
2018-03-07,Durgapur,1.0,Moderate,171,PM10
2018-03-08,Durgapur,1.0,Moderate,152,PM10
2018-03-09,Durgapur,1.0,Poor,222,PM10
2018-03-10,Durgapur,1.0,Poor,231,PM10
2018-03-11,Durgapur,1.0,Poor,245,PM10
2018-03-12,Durgapur,1.0,Poor,254,PM10
2018-03-13,Durgapur,1.0,Poor,242,PM10
2018-03-14,Durgapur,1.0,Poor,233,PM10
2018-03-15,Durgapur,1.0,Poor,245,PM10
2018-03-16,Durgapur,1.0,Poor,258,PM10
2018-03-17,Durgapur,1.0,Moderate,186,PM10
2018-03-18,Durgapur,1.0,Poor,234,PM10
2018-03-19,Durgapur,1.0,Moderate,195,PM10
2018-03-20,Durgapur,1.0,Poor,283,PM10
2018-03-21,Durgapur,1.0,Poor,216,PM10
2018-03-22,Durgapur,1.0,Poor,270,PM10
2018-03-26,Durgapur,1.0,Moderate,154,PM10
2018-03-27,Durgapur,1.0,Poor,238,PM10
2018-03-28,Durgapur,1.0,Poor,221,PM10
2018-03-29,Durgapur,1.0,Moderate,178,PM10
2018-03-30,Durgapur,1.0,Moderate,136,PM10
2018-03-31,Durgapur,1.0,Moderate,143,PM10
2018-04-01,Durgapur,1.0,Moderate,113,PM10
2018-04-02,Durgapur,1.0,Moderate,100,PM10
2018-04-03,Durgapur,1.0,Poor,235,PM10
2018-04-04,Durgapur,1.0,Moderate,156,PM10
2018-04-05,Durgapur,1.0,Moderate,118,PM10
2018-04-06,Durgapur,1.0,Moderate,111,PM10
2018-04-08,Durgapur,1.0,Moderate,129,PM10
2018-04-09,Durgapur,1.0,Moderate,177,PM10
2018-04-10,Durgapur,1.0,Moderate,144,PM10
2018-04-11,Durgapur,1.0,Moderate,139,PM10
2018-04-12,Durgapur,1.0,Moderate,177,PM10
2018-04-13,Durgapur,1.0,Moderate,142,PM10
2018-04-14,Durgapur,1.0,Moderate,160,PM10
2018-04-15,Durgapur,1.0,Moderate,152,PM10
2018-04-16,Durgapur,1.0,Poor,254,PM10
2018-04-17,Durgapur,1.0,Moderate,180,PM10
2018-04-18,Durgapur,1.0,Moderate,131,PM10
2018-04-19,Durgapur,1.0,Moderate,149,PM10
2018-04-20,Durgapur,1.0,Moderate,158,PM10
2018-04-21,Durgapur,1.0,Moderate,131,PM10
2018-04-22,Durgapur,1.0,Moderate,191,PM10
2018-05-03,Durgapur,1.0,Satisfactory,85,PM10
2018-05-04,Durgapur,1.0,Moderate,160,PM10
2018-05-05,Durgapur,1.0,Moderate,100,PM10
2018-05-06,Durgapur,1.0,Moderate,135,PM10
2018-05-07,Durgapur,1.0,Moderate,168,PM10
2018-05-08,Durgapur,1.0,Moderate,156,PM10
2018-05-09,Durgapur,1.0,Moderate,145,PM10
2018-05-10,Durgapur,1.0,Moderate,131,PM10
2018-05-11,Durgapur,1.0,Moderate,130,PM10
2018-05-12,Durgapur,1.0,Moderate,129,PM10
2018-05-13,Durgapur,1.0,Satisfactory,97,PM10
2018-05-14,Durgapur,1.0,Moderate,104,PM10
2018-05-15,Durgapur,1.0,Moderate,121,PM10
2018-05-16,Durgapur,1.0,Moderate,108,PM10
2018-05-20,Durgapur,1.0,Moderate,152,PM10
2018-05-21,Durgapur,1.0,Moderate,181,PM10
2018-05-22,Durgapur,1.0,Moderate,131,PM10
2018-05-23,Durgapur,1.0,Moderate,156,PM10
2018-05-24,Durgapur,1.0,Satisfactory,93,PM10
2018-05-25,Durgapur,1.0,Satisfactory,81,PM10
2018-05-26,Durgapur,1.0,Moderate,152,PM10
2018-05-27,Durgapur,1.0,Satisfactory,74,NO2
2018-05-28,Durgapur,1.0,Moderate,105,PM10
2018-05-29,Durgapur,1.0,Satisfactory,91,PM10
2018-05-30,Durgapur,1.0,Moderate,119,PM10
2018-05-31,Durgapur,1.0,Moderate,138,PM10
2018-06-01,Durgapur,1.0,Moderate,114,PM10
2018-06-02,Durgapur,1.0,Satisfactory,89,PM10
2018-06-03,Durgapur,1.0,Moderate,128,PM10
2018-06-04,Durgapur,1.0,Moderate,150,PM10
2018-06-05,Durgapur,1.0,Moderate,122,PM10
2018-06-06,Durgapur,1.0,Moderate,133,PM10
2018-06-07,Durgapur,1.0,Moderate,109,PM10
2018-06-08,Durgapur,1.0,Moderate,100,PM10
2018-06-09,Durgapur,1.0,Moderate,103,PM10
2018-06-10,Durgapur,1.0,Moderate,138,PM10
2018-06-11,Durgapur,1.0,Moderate,190,PM10
2018-06-12,Durgapur,1.0,Moderate,126,PM10
2018-06-13,Durgapur,1.0,Moderate,143,PM10
2018-06-16,Durgapur,1.0,Poor,278,PM10
2018-06-17,Durgapur,1.0,Poor,296,PM10
2018-06-18,Durgapur,1.0,Moderate,198,PM10
2018-06-19,Durgapur,1.0,Moderate,196,PM10
2018-06-20,Durgapur,1.0,Moderate,132,PM10
2018-06-23,Durgapur,1.0,Moderate,128,PM10
2018-06-24,Durgapur,1.0,Moderate,144,PM10
2018-06-25,Durgapur,1.0,Moderate,130,PM10
2018-06-26,Durgapur,1.0,Moderate,134,PM10
2018-06-27,Durgapur,1.0,Satisfactory,92,PM10
2018-07-01,Durgapur,1.0,Moderate,130,PM10
2018-07-02,Durgapur,1.0,Moderate,118,PM10
2018-07-05,Durgapur,1.0,Moderate,107,PM10
2018-07-06,Durgapur,1.0,Moderate,166,PM10
2018-07-07,Durgapur,1.0,Moderate,118,PM10
2018-07-08,Durgapur,1.0,Satisfactory,82,SO2
2018-07-09,Durgapur,1.0,Satisfactory,74,NO2
2018-07-10,Durgapur,1.0,Moderate,126,PM10
2018-07-11,Durgapur,1.0,Satisfactory,90,PM10
2018-07-12,Durgapur,1.0,Satisfactory,75,NO2
2018-07-13,Durgapur,1.0,Satisfactory,82,PM10
2018-07-14,Durgapur,1.0,Satisfactory,76,NO2
2018-07-15,Durgapur,1.0,Satisfactory,75,NO2
2018-07-16,Durgapur,1.0,Satisfactory,68,NO2
2018-07-17,Durgapur,1.0,Good,47,PM10
2018-07-18,Durgapur,1.0,Satisfactory,61,PM10
2018-07-19,Durgapur,1.0,Satisfactory,74,PM10
2018-07-20,Durgapur,1.0,Moderate,114,PM10
2018-07-21,Durgapur,1.0,Satisfactory,59,PM10
2018-07-22,Durgapur,1.0,Good,37,NO2
2018-07-23,Durgapur,1.0,Satisfactory,63,SO2
2018-07-24,Durgapur,1.0,Satisfactory,87,PM10
2018-07-25,Durgapur,1.0,Moderate,125,PM10
2018-07-26,Durgapur,1.0,Moderate,103,PM10
2018-07-27,Durgapur,1.0,Moderate,103,PM10
2018-07-28,Durgapur,1.0,Moderate,121,PM10
2018-07-31,Durgapur,1.0,Moderate,156,PM10
2018-08-01,Durgapur,1.0,Moderate,130,PM10
2018-08-02,Durgapur,1.0,Satisfactory,85,PM10
2018-08-03,Durgapur,1.0,Moderate,135,PM10
2018-08-04,Durgapur,1.0,Moderate,149,PM10
2018-08-05,Durgapur,1.0,Moderate,144,PM10
2018-08-06,Durgapur,1.0,Moderate,113,PM10
2018-08-07,Durgapur,1.0,Satisfactory,61,PM10
2018-08-08,Durgapur,1.0,Satisfactory,60,PM10
2018-08-09,Durgapur,1.0,Satisfactory,88,PM10
2018-08-10,Durgapur,1.0,Moderate,106,PM10
2018-08-11,Durgapur,1.0,Moderate,117,PM10
2018-08-12,Durgapur,1.0,Moderate,100,PM10
2018-08-13,Durgapur,1.0,Satisfactory,91,PM10
2018-08-14,Durgapur,1.0,Good,48,PM10
2018-08-15,Durgapur,1.0,Good,43,NO2
2018-08-16,Durgapur,1.0,Good,39,NO2
2018-08-17,Durgapur,1.0,Satisfactory,89,PM10
2018-08-18,Durgapur,1.0,Moderate,121,PM10
2018-08-19,Durgapur,1.0,Good,38,NO2
2018-08-20,Durgapur,1.0,Good,37,NO2
2018-09-06,Durgapur,1.0,Good,36,NO2
2018-09-07,Durgapur,1.0,Good,36,NO2
2018-09-08,Durgapur,1.0,Satisfactory,61,PM10
2018-09-09,Durgapur,1.0,Satisfactory,53,PM10
2018-09-10,Durgapur,1.0,Satisfactory,57,PM10
2018-09-11,Durgapur,1.0,Satisfactory,69,PM10
2018-09-12,Durgapur,1.0,Satisfactory,72,PM10
2018-09-13,Durgapur,1.0,Satisfactory,83,PM10
2018-09-14,Durgapur,1.0,Satisfactory,82,PM10
2018-09-15,Durgapur,1.0,Satisfactory,63,PM10
2018-09-16,Durgapur,1.0,Satisfactory,80,PM10
2018-09-17,Durgapur,1.0,Satisfactory,85,PM10
2018-09-19,Durgapur,1.0,Satisfactory,91,PM10
2018-09-20,Durgapur,1.0,Satisfactory,57,PM10
2018-09-21,Durgapur,1.0,Good,38,NO2
2018-09-22,Durgapur,1.0,Good,45,CO
2018-09-23,Durgapur,1.0,Satisfactory,65,PM10
2018-09-24,Durgapur,1.0,Satisfactory,95,PM10
2018-09-25,Durgapur,1.0,Moderate,110,PM10
2018-09-27,Durgapur,1.0,Satisfactory,87,PM10
2018-09-28,Durgapur,1.0,Moderate,103,PM10
2018-09-29,Durgapur,1.0,Moderate,113,PM10
2018-09-30,Durgapur,1.0,Moderate,118,PM10
2018-10-04,Durgapur,1.0,Moderate,113,PM10
2018-10-05,Durgapur,1.0,Satisfactory,100,PM10
2018-10-06,Durgapur,1.0,Moderate,101,PM10
2018-10-07,Durgapur,1.0,Moderate,125,PM10
2018-10-09,Durgapur,1.0,Moderate,134,PM10
2018-10-10,Durgapur,1.0,Satisfactory,78,PM10
2018-10-12,Durgapur,1.0,Satisfactory,74,NO2
2018-10-13,Durgapur,1.0,Satisfactory,74,NO2
2018-10-14,Durgapur,1.0,Moderate,101,PM10
2018-10-15,Durgapur,1.0,Moderate,119,PM10
2018-10-16,Durgapur,1.0,Moderate,129,NO2
2018-10-17,Durgapur,1.0,Moderate,157,PM10
2018-10-18,Durgapur,1.0,Moderate,154,PM10
2018-10-19,Durgapur,1.0,Moderate,139,NO2
2018-10-20,Durgapur,1.0,Moderate,133,NO2
2018-10-21,Durgapur,1.0,Moderate,119,PM10
2018-10-22,Durgapur,1.0,Moderate,132,PM10
2018-10-23,Durgapur,1.0,Moderate,134,PM10
2018-10-24,Durgapur,1.0,Moderate,116,PM10
2018-10-27,Durgapur,1.0,Moderate,114,PM10
2018-10-28,Durgapur,1.0,Moderate,104,PM10
2018-10-29,Durgapur,1.0,Satisfactory,98,NO2
2018-10-30,Durgapur,1.0,Satisfactory,98,NO2
2018-10-31,Durgapur,1.0,Satisfactory,99,NO2
2018-11-03,Durgapur,1.0,Moderate,110,PM10
2018-11-04,Durgapur,1.0,Moderate,133,PM10
2018-11-05,Durgapur,1.0,Moderate,129,PM10
2018-11-06,Durgapur,1.0,Moderate,123,PM10
2018-11-07,Durgapur,1.0,Moderate,132,PM10
2018-11-08,Durgapur,1.0,Moderate,133,PM10
2018-11-09,Durgapur,1.0,Moderate,133,PM10
2018-11-10,Durgapur,1.0,Moderate,133,PM10
2018-11-11,Durgapur,1.0,Moderate,103,PM10
2018-11-12,Durgapur,1.0,Moderate,118,PM10
2018-11-13,Durgapur,1.0,Moderate,147,PM10
2018-11-15,Durgapur,1.0,Moderate,175,PM10
2018-11-16,Durgapur,1.0,Moderate,166,PM10
2018-11-19,Durgapur,1.0,Poor,202,PM10
2018-11-20,Durgapur,1.0,Moderate,144,PM10
2018-11-21,Durgapur,1.0,Moderate,149,PM10
2018-11-22,Durgapur,1.0,Moderate,150,PM10
2018-11-23,Durgapur,1.0,Moderate,149,PM10
2018-11-26,Durgapur,1.0,Moderate,136,PM10
2018-11-27,Durgapur,1.0,Satisfactory,99,PM10
2018-11-28,Durgapur,1.0,Moderate,109,PM10